This is the latest recevied weather packets stored in our database for station/object KE9ADS. If no packets are shown the sender has not sent any weather packets the latest 1 day(s).
| Time | Temp. | Humidity | Pressure | Rain* | Wind** | Luminosity | Snow |
|---|---|---|---|---|---|---|---|
| 1778013043 | 13.33° C | 37% | 1013.5 hPa | 0 mm | 0.45 m/s, 211° | 184 W/m² | - |
| 1778012441 | 13.33° C | 36% | 1013.6 hPa | 0 mm | 0.45 m/s, 242° | 180 W/m² | - |
| 1778011836 | 13.33° C | 37% | 1013.4 hPa | 0 mm | 0.45 m/s, 243° | 180 W/m² | - |
| 1778011230 | 13.33° C | 40% | 1013.4 hPa | 0 mm | 0.45 m/s, 243° | 194 W/m² | - |
| 1778010629 | 13.33° C | 39% | 1013.6 hPa | 0 mm | 0.89 m/s, 239° | 176 W/m² | - |
| 1778010027 | 13.33° C | 40% | 1013.5 hPa | 0 mm | 0.89 m/s, 240° | 250 W/m² | - |
| 1778009422 | 13.33° C | 37% | 1013.5 hPa | 0 mm | 0.89 m/s, 308° | 233 W/m² | - |
| 1778008818 | 13.33° C | 38% | 1013.7 hPa | 0 mm | 1.34 m/s, 262° | 221 W/m² | - |
| 1778008214 | 12.78° C | 37% | 1013.9 hPa | 0 mm | 0.45 m/s, 231° | 170 W/m² | - |
| 1778007610 | 12.78° C | 38% | 1014.1 hPa | 0 mm | 0.45 m/s, 249° | 163 W/m² | - |
| 1778007009 | 13.33° C | 40% | 1013.8 hPa | 0 mm | 0.45 m/s, 220° | 200 W/m² | - |
| 1778006409 | 13.33° C | 41% | 1013.9 hPa | 0 mm | 0.45 m/s, 228° | 206 W/m² | - |
| 1778005809 | 13.33° C | 37% | 1013.9 hPa | 0 mm | 0.89 m/s, 236° | 239 W/m² | - |
| 1778005208 | 12.78° C | 39% | 1014 hPa | 0 mm | 0 m/s | 240 W/m² | - |
| 1778004602 | 12.78° C | 44% | 1014.2 hPa | 0 mm | 0 m/s | 235 W/m² | - |
| 1778004001 | 12.78° C | 40% | 1014 hPa | 0 mm | 0.45 m/s, 212° | 240 W/m² | - |
| 1778003399 | 12.78° C | 39% | 1014.2 hPa | 0 mm | 0.89 m/s, 224° | 205 W/m² | - |
| 1778002798 | 12.78° C | 42% | 1014 hPa | 0 mm | 0 m/s | 209 W/m² | - |
| 1778002198 | 12.78° C | 40% | 1014.1 hPa | 0 mm | 0.45 m/s, 276° | 208 W/m² | - |
| 1778001596 | 12.78° C | 40% | 1014.2 hPa | 0 mm | 0 m/s | 214 W/m² | - |
| 1778000995 | 12.22° C | 40% | 1014 hPa | 0 mm | 0.89 m/s, 296° | 228 W/m² | - |
| 1778000393 | 12.22° C | 40% | 1014.1 hPa | 0 mm | 0.89 m/s, 269° | 240 W/m² | - |
| 1777999791 | 12.22° C | 38% | 1014 hPa | 0 mm | 0.45 m/s, 280° | 271 W/m² | - |
| 1777999186 | 12.22° C | 40% | 1014.1 hPa | 0 mm | 0.89 m/s, 326° | 236 W/m² | - |
| 1777998583 | 11.67° C | 40% | 1013.7 hPa | 0 mm | 0.89 m/s, 252° | 190 W/m² | - |
* Rain latest hour (hover to see other rain measurements)
** Current wind speed in m/s (hover to see current wind gust speed)